Time,TemperatureF,DewpointF,PressureIn,WindDirection,WindDirectionDegrees,WindSpeedMPH,WindSpeedGustMPH,Humidity,HourlyPrecipIn,Conditions,Clouds,dailyrainin,SoftwareType,DateUTC
2013-03-09 00:01:00,38.0,27.0,29.88,NNW,348,0.0,0.0,65,0.00,,,0.00,,2013-03-09 07:01:00,
2013-03-09 00:11:00,38.0,27.0,29.88,NNW,348,0.0,0.0,65,0.00,,,0.00,,2013-03-09 07:11:00,
2013-03-09 00:21:00,38.0,27.0,29.88,NNW,348,0.0,2.0,65,0.00,,,0.00,,2013-03-09 07:21:00,
2013-03-09 00:31:00,39.0,28.0,29.88,NNW,348,0.0,1.0,64,0.00,,,0.00,,2013-03-09 07:31:00,
2013-03-09 00:41:00,39.0,28.0,29.88,NNW,348,0.0,1.0,64,0.00,,,0.00,,2013-03-09 07:41:00,
2013-03-09 00:51:00,39.0,28.0,29.88,NNW,348,0.0,6.0,64,0.00,,,0.00,,2013-03-09 07:51:00,
2013-03-09 01:01:00,38.0,27.0,29.88,NNW,348,0.0,5.0,65,0.00,,,0.00,,2013-03-09 08:01:00,
2013-03-09 01:11:00,38.0,27.0,29.88,NNW,348,0.0,5.0,65,0.00,,,0.00,,2013-03-09 08:11:00,
2013-03-09 01:21:00,37.0,27.0,29.88,NNW,348,0.0,3.0,67,0.00,,,0.00,,2013-03-09 08:21:00,
2013-03-09 01:31:00,37.0,27.0,29.89,NNW,348,0.0,0.0,66,0.00,,,0.00,,2013-03-09 08:31:00,
2013-03-09 01:41:00,37.0,27.0,29.89,NNW,348,0.0,0.0,66,0.00,,,0.00,,2013-03-09 08:41:00,
2013-03-09 01:52:00,37.0,26.0,29.89,NNW,348,0.0,5.0,65,0.00,,,0.00,,2013-03-09 08:52:00,
2013-03-09 02:01:00,37.0,27.0,29.90,NNW,348,1.0,6.0,67,0.00,,,0.00,,2013-03-09 09:01:00,
2013-03-09 02:11:00,37.0,27.0,29.90,NNW,348,1.0,6.0,67,0.00,,,0.00,,2013-03-09 09:11:00,
2013-03-09 02:21:00,37.0,27.0,29.90,NNW,348,4.0,9.0,67,0.00,,,0.00,,2013-03-09 09:21:00,
2013-03-09 02:31:00,36.0,26.0,29.90,NNW,348,2.0,7.0,68,0.00,,,0.00,,2013-03-09 09:31:00,
2013-03-09 02:41:00,36.0,26.0,29.90,NNW,348,2.0,7.0,68,0.00,,,0.00,,2013-03-09 09:41:00,
2013-03-09 02:52:00,36.0,26.0,29.90,NNW,348,2.0,7.0,68,0.00,,,0.00,,2013-03-09 09:52:00,
2013-03-09 03:01:00,34.0,26.0,29.90,NNW,348,0.0,7.0,71,0.00,,,0.00,,2013-03-09 10:01:00,
2013-03-09 03:11:00,34.0,26.0,29.90,NNW,348,0.0,7.0,71,0.00,,,0.00,,2013-03-09 10:11:00,
2013-03-09 03:21:00,35.0,27.0,29.90,NNW,348,1.0,5.0,71,0.00,,,0.00,,2013-03-09 10:21:00,
2013-03-09 03:31:00,34.0,26.0,29.91,NNW,348,0.0,3.0,72,0.00,,,0.00,,2013-03-09 10:31:00,
2013-03-09 03:41:00,34.0,26.0,29.91,NNW,348,0.0,3.0,72,0.00,,,0.00,,2013-03-09 10:41:00,
2013-03-09 03:51:00,33.0,26.0,29.91,NNW,348,0.0,1.0,74,0.00,,,0.00,,2013-03-09 10:51:00,
2013-03-09 04:01:00,32.0,25.0,29.91,NNW,348,2.0,5.0,76,0.00,,,0.00,,2013-03-09 11:01:00,
2013-03-09 04:11:00,32.0,25.0,29.91,NNW,348,2.0,5.0,76,0.00,,,0.00,,2013-03-09 11:11:00,
2013-03-09 04:21:00,31.0,25.0,29.91,NNW,348,0.0,0.0,78,0.00,,,0.00,,2013-03-09 11:21:00,
2013-03-09 04:31:00,31.0,25.0,29.93,NNW,348,0.0,0.0,78,0.00,,,0.00,,2013-03-09 11:31:00,
2013-03-09 04:41:00,31.0,25.0,29.93,NNW,348,0.0,0.0,78,0.00,,,0.00,,2013-03-09 11:41:00,
2013-03-09 04:52:00,31.0,26.0,29.93,NNW,348,0.0,0.0,80,0.00,,,0.00,,2013-03-09 11:52:00,
2013-03-09 05:01:00,32.0,26.0,29.93,NNW,346,0.0,11.0,77,0.00,,,0.00,,2013-03-09 12:01:00,
2013-03-09 05:11:00,32.0,26.0,29.93,NNW,346,0.0,11.0,77,0.00,,,0.00,,2013-03-09 12:11:00,
2013-03-09 05:21:00,35.0,27.0,29.94,NNW,346,2.0,7.0,73,0.00,,,0.00,,2013-03-09 12:21:00,
2013-03-09 05:31:00,36.0,26.0,29.94,NNW,348,2.0,9.0,68,0.00,,,0.00,,2013-03-09 12:31:00,
2013-03-09 05:42:00,36.0,26.0,29.94,NNW,348,2.0,9.0,68,0.00,,,0.00,,2013-03-09 12:42:00,
2013-03-09 05:52:00,36.0,27.0,29.95,NNW,348,4.0,11.0,69,0.00,,,0.00,,2013-03-09 12:52:00,
2013-03-09 06:02:00,35.0,27.0,29.95,NNW,348,2.0,6.0,72,0.00,,,0.00,,2013-03-09 13:02:00,
2013-03-09 06:11:00,35.0,27.0,29.95,NNW,348,2.0,6.0,72,0.00,,,0.00,,2013-03-09 13:11:00,
2013-03-09 06:21:00,35.0,27.0,29.95,NNW,348,1.0,11.0,72,0.00,,,0.00,,2013-03-09 13:21:00,
2013-03-09 06:31:00,35.0,27.0,29.96,North,355,3.0,14.0,72,0.00,,,0.00,,2013-03-09 13:31:00,
2013-03-09 06:41:00,35.0,27.0,29.96,North,355,3.0,14.0,72,0.00,,,0.00,,2013-03-09 13:41:00,
2013-03-09 06:51:00,35.0,28.0,29.96,North,355,3.0,7.0,74,0.00,,,0.00,,2013-03-09 13:51:00,
2013-03-09 07:01:00,35.0,28.0,29.98,North,355,0.0,7.0,74,0.00,,,0.00,,2013-03-09 14:01:00,
2013-03-09 07:11:00,35.0,28.0,29.98,North,355,0.0,7.0,74,0.00,,,0.00,,2013-03-09 14:11:00,
2013-03-09 07:21:00,35.0,27.0,29.98,North,355,1.0,11.0,73,0.00,,,0.00,,2013-03-09 14:21:00,
2013-03-09 07:31:00,35.0,27.0,29.99,North,355,0.0,5.0,73,0.00,,,0.00,,2013-03-09 14:31:00,
2013-03-09 07:41:00,35.0,27.0,29.99,North,355,0.0,5.0,73,0.00,,,0.00,,2013-03-09 14:41:00,
2013-03-09 07:52:00,35.0,26.0,30.00,North,355,2.0,6.0,69,0.00,,,0.00,,2013-03-09 14:52:00,
2013-03-09 08:01:00,35.0,27.0,30.01,North,355,0.0,2.0,72,0.00,,,0.00,,2013-03-09 15:01:00,
2013-03-09 08:11:00,35.0,27.0,30.01,North,355,0.0,2.0,72,0.00,,,0.00,,2013-03-09 15:11:00,
2013-03-09 08:21:00,35.0,27.0,30.01,North,355,1.0,7.0,72,0.00,,,0.00,,2013-03-09 15:21:00,
2013-03-09 08:31:00,38.0,22.0,30.02,NNE,13,8.0,18.0,53,0.00,,,0.00,,2013-03-09 15:31:00,
2013-03-09 08:42:00,38.0,22.0,30.02,NNE,13,8.0,18.0,53,0.00,,,0.00,,2013-03-09 15:42:00,
2013-03-09 08:52:00,39.0,21.0,30.02,North,5,9.0,17.0,48,0.00,,,0.00,,2013-03-09 15:52:00,
2013-03-09 09:01:00,39.0,20.0,30.03,North,360,9.0,18.0,46,0.00,,,0.00,,2013-03-09 16:01:00,
2013-03-09 09:11:00,39.0,20.0,30.03,North,360,9.0,18.0,46,0.00,,,0.00,,2013-03-09 16:11:00,
2013-03-09 09:21:00,39.0,19.0,30.03,NNE,23,10.0,18.0,45,0.00,,,0.00,,2013-03-09 16:21:00,
2013-03-09 09:31:00,40.0,20.0,30.04,NNE,22,11.0,21.0,44,0.00,,,0.00,,2013-03-09 16:31:00,
2013-03-09 09:41:00,40.0,20.0,30.04,NNE,22,11.0,21.0,44,0.00,,,0.00,,2013-03-09 16:41:00,
2013-03-09 09:51:00,40.0,19.0,30.04,North,355,11.0,24.0,43,0.00,,,0.00,,2013-03-09 16:51:00,
2013-03-09 10:01:00,40.0,19.0,30.05,NE,42,12.0,28.0,43,0.00,,,0.00,,2013-03-09 17:01:00,
2013-03-09 10:11:00,40.0,19.0,30.05,NE,42,12.0,28.0,43,0.00,,,0.00,,2013-03-09 17:11:00,
2013-03-09 10:22:00,41.0,19.0,30.05,NNE,32,13.0,24.0,41,0.00,,,0.00,,2013-03-09 17:22:00,
2013-03-09 10:32:00,41.0,19.0,30.06,NNE,30,8.0,21.0,40,0.00,,,0.00,,2013-03-09 17:32:00,
2013-03-09 10:42:00,41.0,19.0,30.06,NNE,30,8.0,21.0,40,0.00,,,0.00,,2013-03-09 17:42:00,
2013-03-09 10:52:00,41.0,19.0,30.06,NNE,30,8.0,21.0,40,0.00,,,0.00,,2013-03-09 17:52:00,
2013-03-09 11:01:00,40.0,18.0,30.06,ENE,59,12.0,24.0,40,0.00,,,0.00,,2013-03-09 18:01:00,
2013-03-09 11:11:00,40.0,18.0,30.06,ENE,59,12.0,24.0,40,0.00,,,0.00,,2013-03-09 18:11:00,
2013-03-09 11:21:00,41.0,19.0,30.07,NE,43,12.0,24.0,40,0.00,,,0.00,,2013-03-09 18:21:00,
2013-03-09 11:31:00,42.0,19.0,30.07,North,360,6.0,20.0,40,0.00,,,0.00,,2013-03-09 18:31:00,
2013-03-09 11:42:00,42.0,19.0,30.07,North,360,6.0,20.0,40,0.00,,,0.00,,2013-03-09 18:42:00,
2013-03-09 11:52:00,41.0,17.0,30.08,North,351,4.0,13.0,38,0.00,,,0.00,,2013-03-09 18:52:00,
2013-03-09 12:01:00,41.0,18.0,30.08,NNW,344,9.0,19.0,39,0.00,,,0.00,,2013-03-09 19:01:00,
2013-03-09 12:11:00,41.0,18.0,30.08,NNW,344,9.0,19.0,39,0.00,,,0.00,,2013-03-09 19:11:00,
2013-03-09 12:21:00,41.0,19.0,30.09,NW,322,9.0,18.0,40,0.00,,,0.00,,2013-03-09 19:21:00,
2013-03-09 12:31:00,42.0,19.0,30.09,NNW,342,6.0,16.0,39,0.00,,,0.00,,2013-03-09 19:31:00,
2013-03-09 12:41:00,42.0,19.0,30.09,NNW,342,6.0,16.0,39,0.00,,,0.00,,2013-03-09 19:41:00,
2013-03-09 12:51:00,42.0,18.0,30.09,North,355,8.0,16.0,37,0.00,,,0.00,,2013-03-09 19:51:00,
2013-03-09 13:01:00,42.0,17.0,30.09,NW,313,11.0,20.0,36,0.00,,,0.00,,2013-03-09 20:01:00,
2013-03-09 13:11:00,42.0,17.0,30.09,NW,313,11.0,20.0,36,0.00,,,0.00,,2013-03-09 20:11:00,
2013-03-09 13:21:00,42.0,18.0,30.09,NNW,344,3.0,17.0,38,0.00,,,0.00,,2013-03-09 20:21:00,
2013-03-09 13:31:00,42.0,18.0,30.08,NW,319,4.0,15.0,37,0.00,,,0.00,,2013-03-09 20:31:00,
2013-03-09 13:41:00,42.0,18.0,30.08,NW,319,4.0,15.0,37,0.00,,,0.00,,2013-03-09 20:41:00,
2013-03-09 13:52:00,42.0,17.0,30.08,NNE,15,13.0,22.0,36,0.00,,,0.00,,2013-03-09 20:52:00,
2013-03-09 14:01:00,43.0,18.0,30.08,North,9,12.0,20.0,36,0.00,,,0.00,,2013-03-09 21:01:00,
2013-03-09 14:11:00,43.0,18.0,30.08,North,9,12.0,20.0,36,0.00,,,0.00,,2013-03-09 21:11:00,
2013-03-09 14:21:00,44.0,17.0,30.08,WSW,250,10.0,21.0,34,0.00,,,0.00,,2013-03-09 21:21:00,
2013-03-09 14:31:00,44.0,18.0,30.08,NNW,329,11.0,23.0,35,0.00,,,0.00,,2013-03-09 21:31:00,
2013-03-09 14:41:00,44.0,18.0,30.08,NNW,329,11.0,23.0,35,0.00,,,0.00,,2013-03-09 21:41:00,
2013-03-09 14:51:00,44.0,18.0,30.09,NNW,346,9.0,17.0,35,0.00,,,0.00,,2013-03-09 21:51:00,
2013-03-09 15:01:00,43.0,17.0,30.09,NNW,339,10.0,18.0,35,0.00,,,0.00,,2013-03-09 22:01:00,
2013-03-09 15:11:00,43.0,17.0,30.09,NNW,339,10.0,18.0,35,0.00,,,0.00,,2013-03-09 22:11:00,
2013-03-09 15:21:00,43.0,17.0,30.09,NNW,339,10.0,18.0,35,0.00,,,0.00,,2013-03-09 22:21:00,
2013-03-09 15:32:00,43.0,17.0,30.10,NNW,347,8.0,18.0,35,0.00,,,0.00,,2013-03-09 22:32:00,
2013-03-09 15:41:00,43.0,17.0,30.10,NNW,347,8.0,18.0,35,0.00,,,0.00,,2013-03-09 22:41:00,
2013-03-09 15:52:00,43.0,17.0,30.10,NNW,347,8.0,18.0,35,0.00,,,0.00,,2013-03-09 22:52:00,
2013-03-09 16:01:00,43.0,17.0,30.10,NNW,336,4.0,14.0,35,0.00,,,0.00,,2013-03-09 23:01:00,
2013-03-09 16:11:00,43.0,17.0,30.10,NNW,336,4.0,14.0,35,0.00,,,0.00,,2013-03-09 23:11:00,
2013-03-09 16:21:00,43.0,16.0,30.10,NNW,346,9.0,16.0,33,0.00,,,0.00,,2013-03-09 23:21:00,
2013-03-09 16:32:00,43.0,15.0,30.11,NNW,329,10.0,19.0,32,0.00,,,0.00,,2013-03-09 23:32:00,
2013-03-09 16:41:00,43.0,15.0,30.11,NNW,329,10.0,19.0,32,0.00,,,0.00,,2013-03-09 23:41:00,
2013-03-09 16:52:00,43.0,15.0,30.11,North,5,10.0,19.0,32,0.00,,,0.00,,2013-03-09 23:52:00,
2013-03-09 17:01:00,43.0,15.0,30.11,North,355,6.0,21.0,32,0.00,,,0.00,,2013-03-10 00:01:00,
2013-03-09 17:11:00,43.0,15.0,30.11,North,355,6.0,21.0,32,0.00,,,0.00,,2013-03-10 00:11:00,
2013-03-09 17:21:00,42.0,14.0,30.12,North,5,7.0,15.0,32,0.00,,,0.00,,2013-03-10 00:21:00,
2013-03-09 17:31:00,43.0,16.0,30.13,NNW,344,5.0,15.0,33,0.00,,,0.00,,2013-03-10 00:31:00,
2013-03-09 17:42:00,43.0,16.0,30.13,NNW,344,5.0,15.0,33,0.00,,,0.00,,2013-03-10 00:42:00,
2013-03-09 17:51:00,42.0,15.0,30.14,NNW,345,2.0,16.0,33,0.00,,,0.00,,2013-03-10 00:51:00,
2013-03-09 18:01:00,42.0,15.0,30.14,NNW,337,5.0,18.0,33,0.00,,,0.00,,2013-03-10 01:01:00,
2013-03-09 18:11:00,42.0,15.0,30.14,NNW,337,5.0,18.0,33,0.00,,,0.00,,2013-03-10 01:11:00,
2013-03-09 18:21:00,41.0,15.0,30.15,NNE,12,5.0,13.0,35,0.00,,,0.00,,2013-03-10 01:21:00,
2013-03-09 18:31:00,40.0,18.0,30.16,NNE,17,6.0,9.0,40,0.00,,,0.00,,2013-03-10 01:31:00,
2013-03-09 18:41:00,40.0,18.0,30.16,NNE,17,6.0,9.0,40,0.00,,,0.00,,2013-03-10 01:41:00,
2013-03-09 18:51:00,40.0,18.0,30.16,NNW,347,8.0,14.0,40,0.00,,,0.00,,2013-03-10 01:51:00,
2013-03-09 19:01:00,39.0,17.0,30.17,NNE,16,7.0,12.0,41,0.00,,,0.00,,2013-03-10 02:01:00,
2013-03-09 19:11:00,39.0,17.0,30.17,NNE,16,7.0,12.0,41,0.00,,,0.00,,2013-03-10 02:11:00,
2013-03-09 19:22:00,39.0,17.0,30.18,NNE,22,4.0,16.0,41,0.00,,,0.00,,2013-03-10 02:22:00,
2013-03-09 19:31:00,38.0,17.0,30.19,NE,37,7.0,12.0,42,0.00,,,0.00,,2013-03-10 02:31:00,
2013-03-09 19:41:00,38.0,17.0,30.19,NE,37,7.0,12.0,42,0.00,,,0.00,,2013-03-10 02:41:00,
2013-03-09 19:52:00,38.0,18.0,30.19,NE,34,6.0,15.0,43,0.00,,,0.00,,2013-03-10 02:52:00,
2013-03-09 20:01:00,38.0,18.0,30.20,NE,44,5.0,12.0,43,0.00,,,0.00,,2013-03-10 03:01:00,
2013-03-09 20:11:00,38.0,18.0,30.21,NNE,12,2.0,11.0,43,0.00,,,0.00,,2013-03-10 03:11:00,
2013-03-09 20:21:00,38.0,18.0,30.21,NNE,12,2.0,11.0,43,0.00,,,0.00,,2013-03-10 03:21:00,
2013-03-09 20:31:00,36.0,18.0,30.22,NNW,346,2.0,7.0,47,0.00,,,0.00,,2013-03-10 03:31:00,
2013-03-09 20:41:00,36.0,18.0,30.22,NNW,346,2.0,7.0,47,0.00,,,0.00,,2013-03-10 03:41:00,
2013-03-09 20:52:00,36.0,18.0,30.22,NNW,343,3.0,9.0,47,0.00,,,0.00,,2013-03-10 03:52:00,
2013-03-09 21:01:00,36.0,19.0,30.23,NNW,345,1.0,7.0,49,0.00,,,0.00,,2013-03-10 04:01:00,
2013-03-09 21:11:00,36.0,19.0,30.23,NNW,345,1.0,7.0,49,0.00,,,0.00,,2013-03-10 04:11:00,
2013-03-09 21:21:00,35.0,18.0,30.24,NNW,340,2.0,8.0,49,0.00,,,0.00,,2013-03-10 04:21:00,
2013-03-09 21:31:00,35.0,18.0,30.24,NNW,340,2.0,8.0,49,0.00,,,0.00,,2013-03-10 04:31:00,
2013-03-09 21:41:00,35.0,18.0,30.24,NNW,340,2.0,8.0,49,0.00,,,0.00,,2013-03-10 04:41:00,
2013-03-09 21:51:00,36.0,18.0,30.24,NNE,23,7.0,13.0,48,0.00,,,0.00,,2013-03-10 04:51:00,
2013-03-09 22:01:00,35.0,17.0,30.24,NE,40,4.0,12.0,48,0.00,,,0.00,,2013-03-10 05:01:00,
2013-03-09 22:11:00,35.0,17.0,30.24,NE,40,4.0,12.0,48,0.00,,,0.00,,2013-03-10 05:11:00,
2013-03-09 22:21:00,35.0,18.0,30.24,NE,34,6.0,10.0,50,0.00,,,0.00,,2013-03-10 05:21:00,
2013-03-09 22:31:00,34.0,18.0,30.24,NE,34,0.0,6.0,51,0.00,,,0.00,,2013-03-10 05:31:00,
2013-03-09 22:42:00,33.0,18.0,30.24,NE,34,0.0,1.0,54,0.00,,,0.00,,2013-03-10 05:42:00,
2013-03-09 22:52:00,33.0,18.0,30.24,NE,34,0.0,1.0,54,0.00,,,0.00,,2013-03-10 05:52:00,
2013-03-09 23:01:00,33.0,18.0,30.25,NE,34,1.0,3.0,54,0.00,,,0.00,,2013-03-10 06:01:00,
2013-03-09 23:11:00,33.0,18.0,30.25,NE,34,1.0,3.0,54,0.00,,,0.00,,2013-03-10 06:11:00,
2013-03-09 23:21:00,33.0,19.0,30.25,NE,34,0.0,3.0,55,0.00,,,0.00,,2013-03-10 06:21:00,
2013-03-09 23:31:00,33.0,19.0,30.26,NE,34,2.0,6.0,55,0.00,,,0.00,,2013-03-10 06:31:00,
2013-03-09 23:41:00,33.0,18.0,30.26,NE,39,0.0,10.0,54,0.00,,,0.00,,2013-03-10 06:41:00,
2013-03-09 23:51:00,33.0,18.0,30.26,NE,39,0.0,10.0,54,0.00,,,0.00,,2013-03-10 06:51:00,